• In Moldova, Republic
  • List of Countries
  • For 7 days
  • Water Temperature
  • Satellite Maps
  • Weather Map
  • Weather Widgets
  • user-avatar
    Login

    Hourly Weather Eisenstadt

    Today, 31 March, Friday

    Time Temperature Precipitation Wind Pressure Humidity
    00:00 +9°C° 0 mm 1 mps 729 mmHg 88%
    01:00 +9°C° 0 mm 1 mps 729 mmHg 89%
    02:00 +9°C° 0 mm 1 mps 729 mmHg 89%
    03:00 +9°C° 0 mm 1 mps 729 mmHg 89%
    04:00 +8°C° 0 mm 2 mps 728 mmHg 90%
    05:00 +8°C° 0 mm 2 mps 728 mmHg 88%
    06:00 +9°C° 0 mm 2 mps 728 mmHg 87%
    07:00 +9°C° 0 mm 2 mps 728 mmHg 85%
    08:00 +11°C° 0 mm 3 mps 728 mmHg 78%
    09:00 +13°C° 0 mm 3 mps 728 mmHg 72%
    10:00 +15°C° 0 mm 4 mps 728 mmHg 65%
    11:00 +17°C° 0 mm 4 mps 728 mmHg 62%
    12:00 +17°C° 0 mm 5 mps 727 mmHg 59%
    13:00 +17°C° 0 mm 5 mps 727 mmHg 55%
    14:00 +17°C° 0 mm 5 mps 726 mmHg 57%
    15:00 +17°C° 0 mm 5 mps 726 mmHg 58%
    16:00 +17°C° 0 mm 5 mps 725 mmHg 59%
    17:00 +15°C° 0 mm 4 mps 725 mmHg 66%
    18:00 +13°C° 0 mm 4 mps 725 mmHg 73%
    19:00 +12°C° 0 mm 3 mps 724 mmHg 81%
    20:00 +11°C° 0 mm 3 mps 724 mmHg 82%
    21:00 +10°C° 0 mm 3 mps 724 mmHg 83%
    22:00 +10°C° 0 mm 3 mps 724 mmHg 84%
    23:00 +9°C° 0 mm 3 mps 724 mmHg 84%

    Tomorrow, 1 April, Saturday

    Time Temperature Precipitation Wind Pressure Humidity
    00:00 +9°C° 0 mm 3 mps 724 mmHg 85%
    01:00 +9°C° 0 mm 3 mps 723 mmHg 85%
    02:00 +8°C° 0 mm 3 mps 723 mmHg 87%
    03:00 +8°C° 0 mm 3 mps 723 mmHg 88%
    04:00 +8°C° 0 mm 3 mps 722 mmHg 89%
    05:00 +8°C° 0 mm 3 mps 722 mmHg 88%
    06:00 +8°C° 0 mm 3 mps 722 mmHg 86%
    07:00 +9°C° 0 mm 3 mps 722 mmHg 85%
    08:00 +11°C° 0 mm 4 mps 722 mmHg 78%
    09:00 +13°C° 0 mm 4 mps 722 mmHg 71%
    10:00 +14°C° 0 mm 5 mps 722 mmHg 64%
    11:00 +16°C° 0 mm 5 mps 722 mmHg 61%
    12:00 +17°C° 0 mm 5 mps 722 mmHg 57%
    13:00 +19°C° 0 mm 6 mps 721 mmHg 53%
    14:00 +19°C° 0 mm 5 mps 721 mmHg 53%
    15:00 +19°C° 0 mm 5 mps 721 mmHg 54%
    16:00 +19°C° 0 mm 5 mps 721 mmHg 54%
    17:00 +16°C° 0 mm 5 mps 720 mmHg 62%
    18:00 +14°C° 0 mm 4 mps 720 mmHg 70%
    19:00 +12°C° 0 mm 4 mps 720 mmHg 77%
    20:00 +12°C° 0 mm 3 mps 720 mmHg 79%
    21:00 +11°C° 0 mm 3 mps 721 mmHg 81%
    22:00 +10°C° 0 mm 3 mps 721 mmHg 83%
    23:00 +10°C° 0 mm 3 mps 721 mmHg 83%

    Day after tomorrow, 2 April, Sunday

    Time Temperature Precipitation Wind Pressure Humidity
    00:00 +9°C° 0 mm 3 mps 721 mmHg 83%
    01:00 +9°C° 0 mm 3 mps 721 mmHg 83%
    02:00 +8°C° 0 mm 3 mps 721 mmHg 82%
    03:00 +8°C° 0 mm 2 mps 721 mmHg 82%
    04:00 +8°C° 0 mm 2 mps 721 mmHg 81%
    05:00 +8°C° 0 mm 2 mps 721 mmHg 79%
    06:00 +9°C° 0 mm 2 mps 722 mmHg 76%
    07:00 +10°C° 0 mm 2 mps 722 mmHg 73%
    08:00 +13°C° 0 mm 2 mps 723 mmHg 66%
    09:00 +15°C° 0 mm 2 mps 723 mmHg 59%
    10:00 +17°C° 0 mm 2 mps 723 mmHg 52%
    11:00 +18°C° 0 mm 2 mps 723 mmHg 49%
    12:00 +19°C° 0 mm 2 mps 723 mmHg 46%
    13:00 +20°C° 0 mm 2 mps 723 mmHg 43%
    14:00 +20°C° 0 mm 2 mps 723 mmHg 45%
    15:00 +19°C° 0 mm 2 mps 723 mmHg 46%
    16:00 +19°C° 0 mm 2 mps 723 mmHg 47%
    17:00 +17°C° 0 mm 2 mps 723 mmHg 55%
    18:00 +15°C° 0 mm 2 mps 723 mmHg 64%
    19:00 +12°C° 0 mm 2 mps 723 mmHg 72%
    20:00 +12°C° 0 mm 1 mps 723 mmHg 75%
    21:00 +11°C° 0 mm 1 mps 723 mmHg 77%
    22:00 +10°C° 0 mm 1 mps 723 mmHg 80%
    23:00 +10°C° 0 mm 1 mps 724 mmHg 81%

    3 April, Monday

    Time Temperature Precipitation Wind Pressure Humidity
    00:00 +10°C° 0 mm 1 mps 724 mmHg 82%
    01:00 +10°C° 0 mm 1 mps 724 mmHg 84%
    02:00 +9°C° 0 mm 2 mps 724 mmHg 85%
    03:00 +9°C° 0 mm 2 mps 724 mmHg 86%
    04:00 +9°C° 0 mm 3 mps 724 mmHg 87%
    05:00 +9°C° 0.1 mm 3 mps 724 mmHg 86%
    06:00 +10°C° 0.1 mm 3 mps 725 mmHg 86%
    07:00 +10°C° 0.1 mm 3 mps 725 mmHg 85%
    08:00 +12°C° 0.2 mm 4 mps 725 mmHg 79%
    09:00 +13°C° 0.2 mm 4 mps 725 mmHg 73%
    10:00 +14°C° 0.2 mm 5 mps 726 mmHg 67%
    11:00 +15°C° 0.3 mm 5 mps 725 mmHg 66%
    12:00 +15°C° 0.3 mm 5 mps 725 mmHg 64%
    13:00 +16°C° 0.3 mm 6 mps 725 mmHg 63%
    14:00 +15°C° 0.3 mm 5 mps 725 mmHg 62%
    15:00 +15°C° 0.3 mm 5 mps 724 mmHg 62%
    16:00 +15°C° 0.3 mm 5 mps 724 mmHg 62%
    17:00 +13°C° 0.1 mm 4 mps 724 mmHg 68%
    18:00 +12°C° 0.1 mm 4 mps 724 mmHg 74%
    19:00 +10°C° 0.1 mm 3 mps 724 mmHg 81%
    20:00 +10°C° 0 mm 4 mps 724 mmHg 80%
    21:00 +8°C° 0 mm 4 mps 725 mmHg 79%
    22:00 +8°C° 0 mm 5 mps 725 mmHg 78%
    23:00 +7°C° 0 mm 4 mps 725 mmHg 79%

    4 April, Tuesday

    Time Temperature Precipitation Wind Pressure Humidity
    00:00 +6°C° 0 mm 4 mps 725 mmHg 80%
    01:00 +5°C° 0 mm 4 mps 725 mmHg 81%
    02:00 +5°C° 0 mm 4 mps 725 mmHg 81%
    03:00 +4°C° 0 mm 4 mps 725 mmHg 82%
    04:00 +4°C° 0 mm 4 mps 724 mmHg 82%
    05:00 +4°C° 0 mm 4 mps 725 mmHg 80%
    06:00 +3°C° 0 mm 5 mps 725 mmHg 78%
    07:00 +5°C° 0 mm 5 mps 725 mmHg 75%
    08:00 +6°C° 0 mm 5 mps 725 mmHg 71%
    09:00 +7°C° 0 mm 6 mps 725 mmHg 66%
    10:00 +8°C° 0 mm 7 mps 725 mmHg 61%
    11:00 +9°C° 0.1 mm 7 mps 725 mmHg 59%
    12:00 +9°C° 0.1 mm 7 mps 725 mmHg 56%
    13:00 +10°C° 0.1 mm 7 mps 725 mmHg 54%
    14:00 +10°C° 0 mm 7 mps 725 mmHg 54%
    15:00 +10°C° 0 mm 7 mps 724 mmHg 54%
    16:00 +10°C° 0 mm 7 mps 724 mmHg 55%
    17:00 +8°C° 0 mm 6 mps 724 mmHg 61%
    18:00 +7°C° 0 mm 5 mps 725 mmHg 66%
    19:00 +5°C° 0 mm 4 mps 725 mmHg 72%
    20:00 +5°C° 0 mm 4 mps 725 mmHg 74%
    21:00 +4°C° 0 mm 3 mps 725 mmHg 77%
    22:00 +3°C° 0 mm 3 mps 726 mmHg 79%
    23:00 +3°C° 0 mm 3 mps 726 mmHg 80%

    5 April, Wednesday

    Time Temperature Precipitation Wind Pressure Humidity
    00:00 +3°C° 0 mm 3 mps 726 mmHg 81%
    01:00 +2°C° 0 mm 3 mps 726 mmHg 81%
    02:00 +1°C° 0 mm 4 mps 726 mmHg 82%
    03:00 +1°C° 0 mm 4 mps 725 mmHg 83%
    04:00 +1°C° 0 mm 4 mps 725 mmHg 83%
    05:00 +1°C° 0 mm 4 mps 726 mmHg 80%
    06:00 +2°C° 0 mm 5 mps 726 mmHg 76%
    07:00 +3°C° 0 mm 6 mps 726 mmHg 72%
    08:00 +4°C° 0 mm 6 mps 726 mmHg 67%
    09:00 +6°C° 0 mm 7 mps 726 mmHg 61%
    10:00 +8°C° 0 mm 7 mps 726 mmHg 55%
    11:00 +9°C° 0 mm 7 mps 726 mmHg 52%
    12:00 +10°C° 0 mm 7 mps 725 mmHg 50%
    13:00 +11°C° 0 mm 7 mps 725 mmHg 48%
    14:00 +11°C° 0 mm 7 mps 725 mmHg 49%
    15:00 +11°C° 0 mm 6 mps 724 mmHg 50%
    16:00 +11°C° 0 mm 6 mps 724 mmHg 52%
    17:00 +10°C° 0 mm 5 mps 724 mmHg 58%
    18:00 +8°C° 0 mm 4 mps 724 mmHg 65%
    19:00 +8°C° 0 mm 3 mps 724 mmHg 72%
    20:00 +6°C° 0.1 mm 4 mps 724 mmHg 76%
    21:00 +6°C° 0.1 mm 4 mps 724 mmHg 80%
    22:00 +6°C° 0.1 mm 5 mps 724 mmHg 83%
    23:00 +5°C° 0.4 mm 5 mps 724 mmHg 82%
    Show more